Starlink 30865

operational
NORAD ID: 58226 Int'l Des: 2023-170 Owner: SPXS Country: US Constellation: starlink
LEOCIRCULAR

Über Starlink 30865

Beschreibung wird geladen...

Live-Position

3D-Globus wird geladen...

Nächste Überflüge

Höhenverlauf

Altitude vs Time

uPlot chart will show altitude changes over time

Zweizeiliger Elementsatz

1 58226U 23170W 25258.15042970 .00000269 00000-0 35017-4 0 9993
2 58226 43.0024 58.7149 0001089 269.0346 91.0372 15.02534172104007
Epoch: 15. Sept. 2025 • Age: 11 hours

Aktueller Status

Höhe 569.7 km
Geschwindigkeit 7.58 km/s
Subsatellitenpunkt -38.08°S, 84.21°E
Startdatum 4. Nov. 2023
Alter 1.8 years
Typ internet

Technische Details

Klassifizierung Payload
Masse 730.00 kg
Trockenmasse 700.00 kg
Gesamtmasse 730.00 kg
Länge 0.30 m
Durchmesser 4.10 m
Spannweite 29.00 m
Form Box + pan
Hersteller SPXS
Bus-Typ Starlink V2M
Phasenstatus In Orbit
Besitzer/Staat SPXS/US

Große Konstellationen

Loading constellations...